CAPE
47 14 2 18 16 14 0 0 8 13 0 0 0 0 0 0 0 0 0 0 0 0 0 0 0 0 0 0 0 0 0 0 0 0 0 0 0 0 0 0 0 0 0 0 0
171 18 0 2 12 17 31 0 36 19 0 0 0 0 0 0 0 0 2 0 0 0 0 0 0 0 0 0 0 0 0 0 0 0 0 0 0 0 0 0 0 0 0 0 0
146 52 0 11 3 1 0 0 43 42 0 0 0 0 0 0 0 1 0 0 0 0 0 0 0 0 0 0 0 0 0 0 0 0 0 0 0 0 0 0 0 0 0 0 0
114 63 35 21 22 16 0 9 78 86 2 5 0 0 0 0 0 0 0 0 0 0 0 0 0 0 0 0 0 0 0 0 0 0 0 0 0 0 0 0 0 0 0 0 0
98 25 11 4 0 0 0 0 110 9 0 0 0 0 0 0 0 0 0 0 0 0 0 0 0 0 0 0 0 0 0 0 0 0 0 0 0 0 0 0 0 0 0 0 0
110 9 3 2 0 0 16 3 93 7 0 0 0 0 0 0 0 0 0 0 0 0 0 0 0 0 0 0 0 0 0 0 0 0 0 0 0 0 0 0 0 0 0 0 0
4 4 4 0 0 0 7 21 96 9 2 0 0 0 0 0 0 0 0 0 0 0 0 0 0 0 0 0 0 0 0 0 0 0 0 0 0 0 0 0 0 0 0 0 0
7 0 0 0 0 0 3 66 14 2 0 0 0 0 0 0 0 0 0 0 0 0 0 0 0 0 0 0 0 0 0 0 0 0 0 0 0 0 0 0 0 0 0 0 0
0 0 0 14 6 10 67 78 0 0 0 0 0 0 0 0 0 0 0 0 0 0 0 0 0 0 0 0 0 0 0 0 0 0 0 0 0 0 0 0 0 0 0 0 0
40 39 75 82 26 5 4 0 0 0 0 0 0 0 0 0 0 0 0 0 0 0 0 0 0 0 0 0 0 0 0 0 0 0 0 0 0 0 0 0 0 0 0 0 0
15 23 4 8 0 1 0 0 0 0 0 0 0 0 0 0 0 0 0 0 0 0 0 0 0 0 0 0 0 0 0 0 0 0 0 0 0 0 0 0 0 0 0 0 0
15 9 0 0 0 0 0 0 0 0 0 0 0 0 0 0 0 0 0 0 0 0 0 0 0 0 0 0 0 0 0 0 0 0 0 0 0 0 0 0 0 0 0 0 0
1 1 0 0 0 0 0 0 0 0 0 0 0 0 0 0 0 0 0 0 0 0 0 0 0 0 0 0 0 0 0 0 0 0 0 0 0 0 0 0 0 3 1 11 13
0 0 0 0 0 0 0 0 0 0 0 0 0 0 0 0 0 0 0 0 0 0 0 0 0 0 0 0 0 0 0 0 0 0 0 1 0 0 0 0 0 0 0 0 3
0 0 0 0 0 0 0 0 0 0 0 0 0 0 0 0 0 0 0 0 0 0 0 0 0 0 0 0 0 0 0 1 3 2 1 0 0 0 0 0 0 0 0 2 2
0 0 0 0 0 0 0 0 0 0 0 0 0 0 0 0 0 0 0 0 0 0 0 0 0 0 0 0 0 0 0 1 2 0 1 0 0 0 0 0 0 0 3 3 3
0 0 0 0 0 0 0 0 0 0 0 0 0 0 0 0 0 0 0 0 0 0 0 0 0 0 0 0 0 0 0 1 0 1 0 0 0 0 1 0 1 1 3 5 2
0 0 0 0 0 0 0 0 0 0 0 0 0 0 0 0 0 0 0 0 0 0 0 0 0 0 0 0 0 3 0 0 0 0 1 0 0 0 1 2 3 3 4 0 3
0 0 0 0 0 0 0 0 0 0 0 0 0 0 0 0 0 0 0 0 0 0 0 0 0 0 0 0 0 0 1 6 0 2 2 0 0 0 3 1 2 1 1 0 1
0 0 0 0 0 0 0 0 0 0 0 0 0 0 0 0 0 0 0 0 0 0 0 0 0 0 0 0 0 0 0 1 1 0 0 0 0 0 0 1 2 0 0 0 0
0 0 0 0 0 0 0 0 0 0 0 0 0 0 0 0 0 0 0 0 0 0 0 0 0 0 0 0 0 0 0 0 0 0 0 0 0 0 0 0 0 0 0 0 0
0 0 0 0 0 0 0 0 0 0 0 0 0 0 0 0 0 0 0 0 0 0 0 0 0 0 0 0 0 0 0 0 0 0 0 0 0 0 0 0 0 0 0 0 0
0 0 0 0 0 0 0 0 0 0 0 0 0 0 0 0 0 0 0 0 0 0 0 0 0 0 0 0 0 0 0 0 0 0 0 0 0 0 0 0 0 0 0 0 0
0 0 0 0 0 0 0 0 0 0 0 0 0 0 0 0 0 0 0 0 0 0 0 0 0 0 0 0 0 0 0 0 0 0 0 0 0 0 0 0 0 0 0 0 0
0 0 0 0 0 0 0 0 0 0 0 0 0 0 0 0 0 0 0 0 0 0 0 0 0 0 0 0 0 0 0 0 0 0 0 0 0 0 0 0 0 0 0 0 0
0 0 0 0 0 0 0 0 0 0 0 0 0 0 0 0 0 0 0 0 0 0 0 0 0 0 0 0 0 0 0 0 0 0 0 0 0 0 0 0 0 0 0 0 0
0 0 0 0 0 0 0 0 0 0 0 0 0 0 0 0 0 0 0 0 0 0 0 0 0 0 0 0 0 0 0 0 0 0 0 0 0 0 0 0 0 0 0 0 0
CIN
-3 -6 -13 -3 -2 -1 0 0 -6 -17 0 0 0 0 0 0 0 0 0 0 0 0 0 0 0 0 0 0 0 0 0 0 0 0 0 0 0 0 0 0 0 0 0 0 0
0 -20 0 -10 0 0 0 0 -1 -3 0 0 0 0 0 0 0 0 -1 0 0 0 0 0 0 0 0 0 0 0 0 0 0 0 0 0 0 0 0 0 0 0 0 0 0
0 -9 -4 0 -10 -1 0 0 -2 -1 0 0 0 0 0 0 0 0 0 0 0 0 0 0 0 0 0 0 0 0 0 0 0 0 0 0 0 0 0 0 0 0 0 0 0
-1 -3 -2 0 -1 -3 0 -8 -2 -21 -39 0 0 0 0 0 0 0 0 0 0 0 0 0 0 0 0 0 0 0 0 0 0 0 0 0 0 0 0 0 0 0 0 0 0
-1 -8 -6 -3 0 -2 0 0 0 -18 0 0 0 0 0 0 0 0 0 0 0 0 0 0 0 0 0 0 0 0 0 0 0 0 0 0 0 0 0 0 0 0 0 0 0
-1 -16 -19 0 0 0 0 -8 0 -28 0 0 0 0 0 0 0 0 0 0 0 0 0 0 0 0 0 0 0 0 0 0 0 0 0 0 0 0 0 0 0 0 0 0 0
-9 -8 -1 0 0 0 0 -7 0 -42 0 0 0 0 0 0 0 0 0 0 0 0 0 0 0 0 0 0 0 0 0 0 0 0 0 0 0 0 0 0 0 0 0 0 0
-4 0 0 0 0 0 -42 -12 -35 -72 0 0 0 0 0 0 0 0 0 0 0 0 0 0 0 0 0 0 0 0 0 0 0 0 0 0 0 0 0 0 0 0 0 0 0
0 0 0 -7 -29 -58 -7 0 0 0 0 0 0 0 0 0 0 0 0 0 0 0 0 0 0 0 0 0 0 0 0 0 0 0 0 0 0 0 0 0 0 0 0 0 0
0 -1 -1 0 -22 -13 -29 0 0 0 0 0 0 0 0 0 0 0 0 0 0 0 0 0 0 0 0 0 0 0 0 0 0 0 0 0 0 0 0 0 0 0 0 0 0
-1 -10 0 0 0 -18 0 0 0 0 0 0 0 0 0 0 0 0 0 0 0 0 0 0 0 0 0 0 0 0 0 0 0 0 0 0 0 0 0 0 0 0 0 0 0
-8 -18 -14 0 0 0 0 0 0 0 0 0 0 0 0 0 0 0 0 0 0 0 0 0 0 0 0 0 0 0 0 0 0 0 0 0 0 0 0 0 0 0 0 0 0
-8 -9 0 0 0 0 0 0 0 0 0 0 0 0 0 0 0 0 0 0 0 0 0 0 0 0 0 0 0 0 0 0 0 0 0 0 0 0 0 0 0 -1 -1 -1 -1
0 0 0 0 0 0 0 0 0 0 0 0 0 0 0 0 0 0 0 0 0 0 0 0 0 0 0 0 0 0 0 0 0 0 0 -1 0 0 0 0 0 0 0 0 0
0 0 0 0 0 0 0 0 0 0 0 0 0 0 0 0 0 0 0 0 0 0 0 0 0 0 0 0 0 0 0 0 0 0 0 -1 0 0 0 0 0 0 0 0 0
0 0 0 0 0 0 0 0 0 0 0 0 0 0 0 0 0 0 0 0 0 0 0 0 0 0 0 0 0 0 0 0 0 0 0 0 0 0 0 0 0 0 0 0 0
0 0 0 0 0 0 0 0 0 0 0 0 0 0 0 0 0 0 0 0 0 0 0 0 0 0 0 0 0 0 0 0 0 0 0 0 0 0 0 -2 0 0 0 0 0
0 0 0 0 0 0 0 0 0 0 0 0 0 0 0 0 0 0 0 0 0 0 0 0 0 0 0 0 0 0 -1 0 0 0 0 0 0 0 0 0 0 0 0 -1 0
0 0 0 0 0 0 0 0 0 0 0 0 0 0 0 0 0 0 0 0 0 0 0 0 0 0 0 0 0 0 0 0 0 0 0 0 0 0 0 0 0 0 0 0 0
0 0 0 0 0 0 0 0 0 0 0 0 0 0 0 0 0 0 0 0 0 0 0 0 0 0 0 0 0 0 0 0 0 0 0 0 0 0 0 0 0 0 0 0 0
0 0 0 0 0 0 0 0 0 0 0 0 0 0 0 0 0 0 0 0 0 0 0 0 0 0 0 0 0 0 0 0 0 0 0 0 0 0 0 0 0 0 0 0 0
0 0 0 0 0 0 0 0 0 0 0 0 0 0 0 0 0 0 0 0 0 0 0 0 0 0 0 0 0 0 0 0 0 0 0 0 0 0 0 0 0 0 0 0 0
0 0 0 0 0 0 0 0 0 0 0 0 0 0 0 0 0 0 0 0 0 0 0 0 0 0 0 0 0 0 0 0 0 0 0 0 0 0 0 0 0 0 0 0 0
0 0 0 0 0 0 0 0 0 0 0 0 0 0 0 0 0 0 0 0 0 0 0 0 0 0 0 0 0 0 0 0 0 0 0 0 0 0 0 0 0 0 0 0 0
0 0 0 0 0 0 0 0 0 0 0 0 0 0 0 0 0 0 0 0 0 0 0 0 0 0 0 0 0 0 0 0 0 0 0 0 0 0 0 0 0 0 0 0 0
0 0 0 0 0 0 0 0 0 0 0 0 0 0 0 0 0 0 0 0 0 0 0 0 0 0 0 0 0 0 0 0 0 0 0 0 0 0 0 0 0 0 0 0 0
0 0 0 0 0 0 0 0 0 0 0 0 0 0 0 0 0 0 0 0 0 0 0 0 0 0 0 0 0 0 0 0 0 0 0 0 0 0 0 0 0 0 0 0 0
Wind_Speed
10 14 13 15 19 22 23 18 12 6 6 6 5 6 4 4 6 9 13 14 15 16 14 13 13 13 14 14 15 15 20 24 22 21 21 19 21 20 20 24 23 22 25 27 29
8 10 16 13 19 21 20 19 22 4 5 4 5 5 1 2 6 11 16 16 15 15 14 14 14 14 16 16 17 17 21 22 21 21 22 23 24 25 26 26 27 30 30 31 30
7 13 13 13 15 18 19 22 20 4 1 4 4 5 7 11 12 16 17 16 16 14 13 14 14 15 17 17 19 19 23 20 21 22 24 26 27 26 28 32 30 33 33 32 33
5 4 12 9 10 15 19 23 20 7 1 1 5 5 10 15 19 17 17 16 16 15 14 15 16 18 18 19 19 22 21 21 22 23 26 29 30 30 30 34 34 34 35 35 36
4 5 8 9 9 14 16 17 11 8 4 8 7 6 10 8 10 15 15 15 16 14 15 15 17 18 19 19 20 23 23 24 24 25 28 30 32 34 36 34 33 34 34 35 35
5 7 6 9 11 12 15 17 16 10 5 7 7 9 10 10 12 13 14 14 15 14 15 15 16 15 17 20 22 22 25 28 28 28 28 32 33 31 34 31 33 33 34 36 36
5 7 11 9 11 14 17 19 15 12 4 2 4 5 9 8 11 11 13 14 15 15 14 15 14 17 17 21 21 23 30 29 28 27 28 31 37 31 34 32 33 36 37 37 38
10 10 17 18 16 19 21 20 15 13 9 12 12 6 8 10 10 12 13 14 16 16 15 16 15 15 19 18 22 26 27 31 24 25 27 29 38 30 27 32 40 42 42 41 41
9 12 16 22 20 22 21 22 13 15 12 9 10 7 7 11 11 13 14 15 16 17 17 16 16 18 19 23 27 25 32 32 32 25 29 29 38 29 35 40 43 43 41 41 42
20 20 13 10 21 24 22 23 20 11 10 8 8 9 10 10 12 13 15 16 17 17 16 18 18 19 21 24 30 30 32 31 33 29 32 36 41 38 38 39 42 41 38 38 40
17 14 17 15 21 20 24 17 20 12 1 6 5 7 6 9 12 13 16 17 18 18 19 19 18 21 21 21 22 26 29 32 32 31 32 32 40 41 40 34 36 36 36 37 40
19 26 19 16 22 18 15 14 13 12 5 2 6 7 8 12 11 13 15 15 17 17 18 16 17 18 18 19 22 24 29 30 28 23 29 34 39 35 25 27 33 37 41 42 42
24 23 21 20 23 14 18 17 16 16 2 3 7 6 9 9 9 11 13 16 17 18 19 18 18 17 19 20 22 24 22 24 25 31 28 29 27 19 12 3 18 35 37 36 36
23 17 21 23 25 22 20 15 14 16 5 6 9 9 11 13 10 11 17 18 18 18 18 18 17 17 19 20 18 23 11 1 7 10 24 11 24 15 15 16 16 8 7 15 33
18 20 18 22 28 23 18 13 14 17 2 13 12 13 13 7 19 18 13 12 18 17 18 13 15 16 13 11 10 10 9 10 7 8 8 9 7 7 4 17 24 13 8 6 3
15 17 21 23 21 16 12 13 16 14 3 11 16 15 6 11 2 13 12 13 13 12 13 12 13 12 11 10 11 9 8 9 10 10 7 9 6 6 3 8 14 6 4 21 18
18 15 19 19 18 11 11 15 14 3 18 13 16 16 15 14 14 13 11 10 11 11 9 11 14 13 12 9 12 10 6 10 12 11 10 10 10 7 5 6 6 1 1 7 25
16 17 15 13 13 12 12 17 20 21 22 22 20 18 17 15 14 13 13 13 13 12 11 10 13 13 14 11 11 12 12 12 10 8 5 13 9 11 13 17 16 14 8 7 13
13 14 14 9 11 13 17 24 27 28 25 24 21 18 16 15 15 14 13 11 11 13 11 10 13 13 12 13 13 12 11 11 10 11 10 14 15 18 15 20 19 21 15 10 9
14 15 14 9 12 16 21 26 25 24 23 20 18 17 16 15 15 14 12 12 11 13 12 12 11 13 11 13 13 13 9 11 13 6 10 13 16 14 18 21 24 23 20 16 8
15 20 13 11 16 18 27 26 24 21 20 19 17 17 14 13 13 13 12 12 13 14 14 13 13 12 11 15 13 12 13 13 12 14 11 10 15 17 18 19 14 16 15 14 13
16 22 13 15 20 21 24 23 21 20 18 17 16 15 15 13 13 13 13 13 14 14 12 13 12 10 12 14 11 11 11 11 12 11 11 10 11 15 13 11 10 12 10 10 7
17 18 13 16 23 23 23 21 20 20 18 17 16 16 14 14 13 14 13 13 14 13 13 14 13 9 14 15 14 12 14 13 10 11 10 11 12 14 13 12 12 13 13 12 11
16 19 16 15 17 23 23 21 20 18 17 16 15 15 14 13 14 13 12 12 13 12 12 12 12 11 9 7 8 7 9 10 12 11 11 9 8 11 13 13 13 13 13 13 13
15 17 17 17 17 18 18 20 19 18 17 17 16 15 14 13 12 13 12 11 11 12 13 11 8 7 7 9 10 9 9 10 10 10 10 10 9 9 11 13 13 13 13 13 12
14 15 16 16 16 16 16 16 17 16 16 15 14 15 13 12 12 10 11 10 10 12 11 9 7 3 6 7 7 6 9 11 11 10 10 10 9 11 13 13 13 13 13 12 12
13 14 14 14 14 14 14 14 14 15 14 15 14 13 12 12 13 13 12 12 10 9 8 8 7 4 6 6 5 6 9 11 10 10 9 9 9 11 11 10 10 10 10 10 10
Wind_Direction
280 249 262 254 244 235 236 241 267 167 224 235 251 274 295 315 336 335 323 313 312 313 317 322 325 323 324 317 319 317 305 297 301 303 305 314 308 312 312 303 304 305 298 298 299
273 266 258 261 244 242 244 234 234 214 210 231 248 261 244 352 355 336 324 322 319 317 316 312 313 319 313 313 314 308 302 303 308 308 306 308 306 306 304 300 297 296 296 298 298
284 245 252 256 254 244 237 234 226 200 168 234 244 237 265 286 289 299 319 323 320 324 331 320 319 315 309 311 309 307 300 307 308 309 308 305 304 304 302 296 297 295 295 296 295
274 284 244 262 263 234 233 229 225 192 85 232 239 256 282 287 264 301 312 324 326 326 317 316 312 305 304 303 307 302 305 308 311 309 306 303 304 302 299 297 296 296 295 294 292
9 279 266 256 270 239 234 227 184 178 216 235 237 262 290 301 295 311 328 323 333 332 320 317 309 306 301 304 306 303 306 305 308 309 306 304 301 300 298 298 298 296 296 294 293
13 246 276 263 270 241 225 214 201 181 179 232 246 284 289 279 305 314 333 340 339 341 335 326 314 320 312 307 306 310 305 304 307 308 307 303 303 305 302 302 299 297 295 294 292
225 243 236 278 277 230 211 204 191 180 165 224 237 47 18 316 305 327 339 340 342 342 342 338 335 320 320 309 317 313 305 306 306 309 308 309 302 300 303 301 299 299 297 295 293
192 233 202 210 217 203 196 186 166 186 185 206 229 303 329 298 302 328 333 347 350 345 345 341 346 336 324 324 317 310 309 306 313 312 312 312 302 309 311 306 302 299 297 295 293
194 199 197 184 195 183 174 165 154 176 202 231 250 312 325 307 332 325 328 330 333 340 343 344 340 329 326 314 309 311 303 306 308 316 312 310 304 309 311 306 303 302 300 298 296
36 43 57 105 165 162 140 146 168 180 213 247 281 305 304 318 317 323 326 335 334 334 335 333 332 323 323 315 304 307 306 309 307 314 313 307 303 308 311 309 306 305 304 302 299
48 98 121 123 128 151 148 163 187 193 241 269 295 30 1 295 292 314 310 310 325 336 326 331 328 321 323 326 324 318 314 310 311 317 315 314 310 310 313 314 315 312 310 306 303
114 126 115 135 155 170 191 185 194 196 76 20 23 11 265 254 324 306 298 335 347 349 347 348 342 348 349 344 334 328 321 319 324 331 325 320 315 318 328 328 325 318 310 305 302
121 125 138 146 150 162 160 165 178 184 205 250 222 247 242 253 285 301 305 356 352 352 353 350 352 1 352 345 339 338 334 335 331 327 330 327 325 346 36 355 351 332 323 316 311
121 127 136 145 147 155 158 179 192 195 205 238 229 232 232 211 335 273 50 31 11 353 2 2 11 7 357 353 4 343 43 137 239 246 348 286 340 10 21 18 14 10 317 280 319
128 130 137 141 145 150 163 192 204 190 258 200 203 200 198 233 112 44 169 170 15 2 8 346 20 16 240 207 127 194 180 217 197 190 219 107 77 62 297 277 297 285 312 303 265
127 139 144 148 152 160 184 196 189 187 313 219 184 185 258 182 137 184 185 162 171 189 176 181 141 158 171 197 174 189 224 210 168 153 127 100 92 104 346 308 285 271 320 24 31
128 133 146 158 167 200 202 183 187 260 176 198 178 171 172 173 175 174 176 177 183 202 206 177 159 153 150 156 138 140 145 146 132 126 115 104 104 85 31 33 59 173 106 72 34
138 141 152 168 185 206 198 166 156 162 158 161 159 159 159 164 166 172 163 153 156 167 173 181 155 152 136 151 142 129 121 125 144 131 148 97 83 73 61 62 76 82 114 111 67
149 148 152 188 187 179 157 139 142 146 148 148 149 151 151 153 156 151 155 176 182 164 160 165 175 171 158 158 138 128 115 126 143 116 117 88 76 70 77 72 81 75 89 100 91
142 143 140 184 175 155 143 139 144 148 146 149 153 153 150 152 152 154 167 170 175 154 169 157 160 183 191 145 164 128 127 124 113 146 119 98 86 96 82 78 74 79 80 85 101
143 131 146 170 157 143 130 137 144 153 152 147 152 151 162 162 161 155 168 167 147 125 124 133 144 150 164 131 128 135 113 108 116 109 110 103 90 99 88 84 104 92 91 95 94
142 123 155 160 136 137 136 142 152 151 155 153 153 154 156 177 166 155 150 154 150 132 129 137 153 151 141 119 160 159 126 118 110 119 110 114 94 107 108 141 160 134 146 133 124
130 138 160 159 126 133 141 145 151 149 150 150 151 152 157 160 158 151 163 163 151 139 136 131 129 127 123 124 125 118 85 92 125 97 129 98 88 112 135 144 133 137 124 121 127
136 126 142 151 151 135 134 143 146 163 157 162 160 159 159 160 164 160 158 153 152 150 146 129 132 134 136 139 124 144 133 137 105 107 101 145 170 117 158 149 142 141 137 132 124
143 131 137 133 146 152 149 142 144 148 163 163 155 157 154 145 151 150 155 164 151 148 133 134 140 150 202 227 224 219 208 182 160 157 133 121 148 171 165 158 159 156 154 152 147
136 135 136 136 142 146 159 161 153 156 159 166 166 156 161 163 166 163 148 144 143 125 128 123 146 163 248 146 134 184 190 180 181 181 190 200 214 196 180 149 149 148 146 150 153
129 172 147 130 134 137 149 156 163 165 169 177 161 158 173 194 195 197 195 193 176 156 145 136 136 136 128 126 240 160 139 141 135 137 136 129 113 86 103 129 146 140 137 133 124